When you browse on this site, cookies collect data to enhance your experience and personalize the content and advertising you see.
Visit our Privacy Policy to learn more. By continuing to use the site, you agree to this use of cookies and data.
  • In Switzerland
  • List of Countries
  • For 7 days
  • Water Temperature
  • Weather Map
  • Weather Widgets
  • user-avatar
    Login

    Hourly Weather Lucerne

    Today, 23 September, Monday

    Time Temperature Precipitation Wind Pressure Humidity
    00:00 +16°C° 1.2 mm 2 mps 720 mmHg 89%
    01:00 +14°C° 1.2 mm 3 mps 720 mmHg 95%
    02:00 +15°C° 1.5 mm 2 mps 720 mmHg 96%
    03:00 +15°C° 1.5 mm 1 mps 720 mmHg 97%
    04:00 +13°C° 1.5 mm 0 mps 721 mmHg 98%
    05:00 +14°C° 1 mm 1 mps 721 mmHg 98%
    06:00 +14°C° 1 mm 1 mps 721 mmHg 98%
    07:00 +14°C° 1 mm 1 mps 721 mmHg 98%
    08:00 +14°C° 1.2 mm 1 mps 721 mmHg 96%
    09:00 +15°C° 1.2 mm 1 mps 722 mmHg 94%
    10:00 +15°C° 1.2 mm 1 mps 722 mmHg 91%
    11:00 +16°C° 0.3 mm 1 mps 722 mmHg 86%
    12:00 +18°C° 0.3 mm 1 mps 722 mmHg 81%
    13:00 +19°C° 0.3 mm 1 mps 722 mmHg 76%
    14:00 +19°C° 0.1 mm 1 mps 722 mmHg 73%
    15:00 +19°C° 0.1 mm 1 mps 722 mmHg 70%
    16:00 +20°C° 0.1 mm 1 mps 722 mmHg 67%
    17:00 +18°C° 0.1 mm 1 mps 722 mmHg 75%
    18:00 +15°C° 0.1 mm 1 mps 722 mmHg 83%
    19:00 +12°C° 0.1 mm 0 mps 722 mmHg 90%
    20:00 +12°C° 0 mm 0 mps 722 mmHg 91%
    21:00 +12°C° 0 mm 1 mps 722 mmHg 92%
    22:00 +12°C° 0 mm 1 mps 723 mmHg 93%
    23:00 +12°C° 0 mm 1 mps 723 mmHg 92%

    Tomorrow, 24 September, Tuesday

    Time Temperature Precipitation Wind Pressure Humidity
    00:00 +11°C° 0 mm 1 mps 723 mmHg 91%
    01:00 +11°C° 0 mm 1 mps 722 mmHg 91%
    02:00 +11°C° 0 mm 1 mps 722 mmHg 90%
    03:00 +11°C° 0 mm 1 mps 722 mmHg 89%
    04:00 +11°C° 0 mm 1 mps 722 mmHg 88%
    05:00 +11°C° 0 mm 1 mps 721 mmHg 86%
    06:00 +11°C° 0 mm 1 mps 721 mmHg 84%
    07:00 +12°C° 0 mm 1 mps 721 mmHg 82%
    08:00 +14°C° 0 mm 1 mps 721 mmHg 75%
    09:00 +16°C° 0 mm 1 mps 720 mmHg 67%
    10:00 +20°C° 0 mm 1 mps 720 mmHg 60%
    11:00 +20°C° 0 mm 1 mps 720 mmHg 58%
    12:00 +21°C° 0 mm 1 mps 720 mmHg 56%
    13:00 +21°C° 0 mm 1 mps 719 mmHg 54%
    14:00 +20°C° 0 mm 1 mps 719 mmHg 61%
    15:00 +19°C° 0 mm 1 mps 719 mmHg 69%
    16:00 +15°C° 0 mm 0 mps 719 mmHg 76%
    17:00 +16°C° 0.5 mm 1 mps 719 mmHg 81%
    18:00 +15°C° 0.5 mm 1 mps 719 mmHg 86%
    19:00 +14°C° 0.5 mm 1 mps 719 mmHg 91%
    20:00 +14°C° 0.1 mm 1 mps 719 mmHg 90%
    21:00 +14°C° 0.1 mm 1 mps 719 mmHg 89%
    22:00 +15°C° 0.1 mm 1 mps 719 mmHg 87%
    23:00 +14°C° 0.4 mm 1 mps 719 mmHg 89%

    Day after tomorrow, 25 September, Wednesday

    Time Temperature Precipitation Wind Pressure Humidity
    00:00 +14°C° 0.4 mm 1 mps 719 mmHg 91%
    01:00 +14°C° 0.4 mm 1 mps 718 mmHg 93%
    02:00 +14°C° 0.2 mm 1 mps 718 mmHg 93%
    03:00 +14°C° 0.2 mm 1 mps 718 mmHg 94%
    04:00 +14°C° 0.2 mm 1 mps 718 mmHg 94%
    05:00 +14°C° 0.1 mm 1 mps 718 mmHg 95%
    06:00 +14°C° 0.1 mm 1 mps 718 mmHg 95%
    07:00 +13°C° 0.1 mm 1 mps 718 mmHg 96%
    08:00 +14°C° 0.1 mm 1 mps 718 mmHg 94%
    09:00 +14°C° 0.1 mm 1 mps 718 mmHg 93%
    10:00 +15°C° 0.1 mm 1 mps 719 mmHg 92%
    11:00 +15°C° 0.2 mm 2 mps 718 mmHg 88%
    12:00 +16°C° 0.2 mm 2 mps 718 mmHg 83%
    13:00 +16°C° 0.2 mm 2 mps 718 mmHg 79%
    14:00 +16°C° 0.3 mm 2 mps 718 mmHg 80%
    15:00 +16°C° 0.3 mm 2 mps 718 mmHg 81%
    16:00 +16°C° 0.3 mm 2 mps 718 mmHg 82%
    17:00 +15°C° 0.2 mm 2 mps 719 mmHg 84%
    18:00 +14°C° 0.2 mm 1 mps 719 mmHg 87%
    19:00 +13°C° 0.2 mm 1 mps 719 mmHg 89%
    20:00 +13°C° 0 mm 1 mps 720 mmHg 89%
    21:00 +12°C° 0 mm 1 mps 720 mmHg 89%
    22:00 +12°C° 0 mm 1 mps 720 mmHg 90%
    23:00 +12°C° 0 mm 1 mps 720 mmHg 89%

    26 September, Thursday

    Time Temperature Precipitation Wind Pressure Humidity
    00:00 +13°C° 0 mm 1 mps 720 mmHg 88%
    01:00 +13°C° 0 mm 1 mps 720 mmHg 87%
    02:00 +13°C° 0.2 mm 1 mps 720 mmHg 89%
    03:00 +13°C° 0.2 mm 1 mps 720 mmHg 90%
    04:00 +13°C° 0.2 mm 1 mps 721 mmHg 92%
    05:00 +13°C° 0.2 mm 1 mps 721 mmHg 92%
    06:00 +13°C° 0.2 mm 1 mps 721 mmHg 93%
    07:00 +13°C° 0.2 mm 1 mps 721 mmHg 93%
    08:00 +15°C° 0 mm 1 mps 722 mmHg 88%
    09:00 +16°C° 0 mm 1 mps 722 mmHg 84%
    10:00 +19°C° 0 mm 1 mps 723 mmHg 79%
    11:00 +19°C° 0 mm 1 mps 722 mmHg 78%
    12:00 +19°C° 0 mm 1 mps 722 mmHg 77%
    13:00 +20°C° 0 mm 1 mps 722 mmHg 76%
    14:00 +20°C° 0 mm 1 mps 722 mmHg 74%
    15:00 +21°C° 0 mm 1 mps 722 mmHg 71%
    16:00 +22°C° 0 mm 1 mps 722 mmHg 68%
    17:00 +20°C° 0 mm 1 mps 722 mmHg 76%
    18:00 +18°C° 0 mm 1 mps 722 mmHg 83%
    19:00 +15°C° 0 mm 0 mps 722 mmHg 90%
    20:00 +15°C° 0 mm 0 mps 723 mmHg 89%
    21:00 +15°C° 0 mm 0 mps 723 mmHg 87%
    22:00 +15°C° 0 mm 0 mps 723 mmHg 86%
    23:00 +15°C° 0 mm 0 mps 723 mmHg 87%

    27 September, Friday

    Time Temperature Precipitation Wind Pressure Humidity
    00:00 +16°C° 0 mm 1 mps 723 mmHg 88%
    01:00 +15°C° 0 mm 1 mps 723 mmHg 89%
    02:00 +15°C° 0 mm 1 mps 722 mmHg 89%
    03:00 +15°C° 0 mm 1 mps 722 mmHg 89%
    04:00 +15°C° 0 mm 1 mps 722 mmHg 89%
    05:00 +15°C° 0 mm 1 mps 722 mmHg 89%
    06:00 +15°C° 0 mm 1 mps 722 mmHg 88%
    07:00 +15°C° 0 mm 1 mps 722 mmHg 88%
    08:00 +18°C° 0 mm 1 mps 722 mmHg 81%
    09:00 +20°C° 0 mm 1 mps 722 mmHg 74%
    10:00 +22°C° 0 mm 1 mps 723 mmHg 67%
    11:00 +22°C° 0.1 mm 1 mps 722 mmHg 68%
    12:00 +23°C° 0.1 mm 2 mps 722 mmHg 68%
    13:00 +23°C° 0.1 mm 2 mps 722 mmHg 68%
    14:00 +23°C° 0.7 mm 2 mps 722 mmHg 72%
    15:00 +22°C° 0.7 mm 1 mps 721 mmHg 75%
    16:00 +22°C° 0.7 mm 1 mps 721 mmHg 79%
    17:00 +20°C° 0.3 mm 1 mps 721 mmHg 83%
    18:00 +19°C° 0.3 mm 1 mps 721 mmHg 87%
    19:00 +16°C° 0.3 mm 1 mps 721 mmHg 91%
    20:00 +16°C° 0.3 mm 1 mps 721 mmHg 91%
    21:00 +16°C° 0.3 mm 1 mps 722 mmHg 92%
    22:00 +16°C° 0.3 mm 1 mps 722 mmHg 93%
    23:00 +16°C° 0.9 mm 1 mps 722 mmHg 94%

    28 September, Saturday

    Time Temperature Precipitation Wind Pressure Humidity
    00:00 +16°C° 0.9 mm 1 mps 721 mmHg 95%
    01:00 +15°C° 0.9 mm 1 mps 721 mmHg 96%
    02:00 +15°C° 0.4 mm 1 mps 721 mmHg 96%
    03:00 +15°C° 0.4 mm 1 mps 721 mmHg 96%
    04:00 +15°C° 0.4 mm 1 mps 721 mmHg 97%
    05:00 +15°C° 0.2 mm 1 mps 721 mmHg 96%
    06:00 +15°C° 0.2 mm 1 mps 722 mmHg 96%
    07:00 +15°C° 0.2 mm 1 mps 722 mmHg 96%
    08:00 +15°C° 0 mm 1 mps 722 mmHg 93%
    09:00 +15°C° 0 mm 1 mps 722 mmHg 91%
    10:00 +16°C° 0 mm 1 mps 722 mmHg 89%
    11:00 +16°C° 0 mm 2 mps 722 mmHg 86%
    12:00 +16°C° 0 mm 2 mps 722 mmHg 83%
    13:00 +17°C° 0 mm 2 mps 722 mmHg 80%
    14:00 +17°C° 0 mm 2 mps 721 mmHg 79%
    15:00 +17°C° 0 mm 2 mps 721 mmHg 77%
    16:00 +18°C° 0 mm 2 mps 721 mmHg 75%
    17:00 +18°C° 0 mm 1 mps 721 mmHg 78%
    18:00 +16°C° 0 mm 1 mps 721 mmHg 80%
    19:00 +15°C° 0 mm 1 mps 722 mmHg 83%
    20:00 +15°C° 0 mm 1 mps 722 mmHg 84%
    21:00 +13°C° 0 mm 0 mps 722 mmHg 85%
    22:00 +13°C° 0 mm 0 mps 722 mmHg 86%
    23:00 +13°C° 0 mm 0 mps 722 mmHg 87%
    Show more